Regional Weather Roundup
Issued by NWS

Home | Current Version | Previous Version | Graphics & Text | Print | Product List | Glossary On
Versions: 1 2 3 4 5 6 7 8 9 10 11 12 13 14 15 16 17 18 19 20 21 22 23 24 25 26 27 28 29 30 31 32 33 34 35 36 37 38 39 40 41 42 43 44 45 46 47 48 49 50
000
ASUS43 KLOT 231006
RWRIL

ILLINOIS REGIONAL WEATHER ROUNDUP
NATIONAL WEATHER SERVICE CHICAGO/ROMEOVILLE IL
500 AM CDT THU OCT 23 2014

NOTE: "FAIR" INDICATES FEW OR NO CLOUDS BELOW 12,000 FEET WITH NO
SIGNIFICANT WEATHER AND/OR OBSTRUCTIONS TO VISIBILITY.

* THESE STATIONS ARE NOT UNDER NWS QUALITY CONTROL. THEY ALSO MAY NOT
  REPORT WEATHER SUCH AS PRECIPITATION OR FOG.

ILZ001-002-007-009-015-016-024-231100-
NORTHWEST ILLINOIS

CITY           SKY/WX    TMP DP  RH WIND       PRES   REMARKS
MOLINE         MOCLDY    40  35  83 SE3       30.16S
STERLING*      CLEAR     34  28  80 SE5       30.19R WCI  30
SAVANNA*       PTCLDY    40  34  79 S3        30.17S
$$

ILZ003-004-008-010-011-017-018-231100-
NORTH CENTRAL ILLINOIS

CITY           SKY/WX    TMP DP  RH WIND       PRES   REMARKS
ROCKFORD       CLEAR     37  33  85 SE9       30.21F WCI  30
FREEPORT*      CLEAR     36  33  90 SE7       30.20R WCI  30
ROCHELLE*      CLEAR     33  32  96 CALM      30.21S FOG
DE KALB*       CLEAR     34  33  95 SE7       30.21S FOG     WCI  28
PERU*          CLEAR     39  35  85 S6        30.21R WCI  34
$$

ILZ005-006-012>014-019>023-231100-
NORTHEAST ILLINOIS

CITY           SKY/WX    TMP DP  RH WIND       PRES   REMARKS
CHICAGO-OHARE  CLEAR     37  35  92 S6        30.21F WCI  32
CHICAGO-MIDWAY PTCLDY    42  38  85 S7        30.22F
AURORA         CLEAR     35  32  88 SE5       30.22S FOG     WCI  31
LANSING*       CLEAR     37  36  96 CALM      30.24S FOG
JOLIET*        CLEAR     36  35  94 SE5       30.22F FOG     WCI  32
WAUKEGAN       CLEAR     38  35  89 S7        30.21F WCI  33
DUPAGE AIRPORT CLEAR     36  34  92 S6        30.21S WCI  31
KANKAKEE*      CLEAR     34  33  96 E3        30.24S FOG
WHEELING       CLEAR     37  34  89 S3        30.23F
MORRIS*          N/A     32  32 100 CALM      30.22R FOG
ROMEOVILLE*    CLEAR     36  36 100 SE5       30.22F FOG     WCI  32
NORTHERLY ISL    N/A     43  38  82 S10         N/A
$$

LMZ740>746-231100-
SOUTHERN LAKE MICHIGAN

STATION/POSITION SKY/WX   TEMP    WIND        PRES    VSBY  WAVE
                          AIR SEA DIR/SP/G                  HT/PER
                          (F)     (DEG/KT/KT) (MB)    (MI)  (FT/S)
SOUTHERN BUOY              50 54  180/ 12/ 14 1023.7F         2/ 4
WAUKEGAN HARBOR            46     200/ 13/ 14   N/A
HARRISON CRIB              46     180/ 15/ 17   N/A
BURNHAM HARBOR             43     170/  7/  9   N/A
CALUMET HARBOR             42     170/  6/  8 1022.4F
MICHIGAN CITY              41     130/ 12/ 15   N/A
$$

ILZ025>027-034>036-040-047-049-050-058-095>099-231100-
WEST-CENTRAL ILLINOIS

CITY           SKY/WX    TMP DP  RH WIND       PRES   REMARKS
QUINCY         MOCLDY    47  40  76 S7        30.16S
GALESBURG*     PTCLDY    41  37  84 SE5       30.17S
MACOMB*        CLEAR     37  35  94 S6        30.19S WCI  32
JACKSONVILLE*  PTCLDY    44  38  80 S5        30.19S
PITTSFIELD*    PTCLDY    45  40  82 S5        30.18S
$$

ILZ028>032-037-038-041>044-048-051>054-059>061-231100-
CENTRAL ILLINOIS

CITY           SKY/WX    TMP DP  RH WIND       PRES   REMARKS
PONTIAC        CLEAR     32  31  96 SE5       30.22S WCI  27
BLOOMINGTON    MIX PCPN  37  35  92 S6        30.22S WCI  32
DECATUR        CLEAR     36  34  92 CALM      30.22F
PEORIA         PTCLDY    44  36  73 S6        30.20S
LACON*         CLEAR     37  33  86 S5        30.19S WCI  33
LINCOLN*       PTCLDY    38  36  92 CALM      30.20F
SPRINGFIELD    PTCLDY    41  36  82 S5        30.21S
TAYLORVILLE    CLEAR     37  36  93 SE7       30.21S WCI  32
$$

ILZ033-039-045-046-055>057-062-063-231100-
EAST-CENTRAL ILLINOIS

CITY           SKY/WX    TMP DP  RH WIND       PRES   REMARKS
CHAMPAIGN      CLEAR     35  33  92 E7        30.23S WCI  29
DANVILLE*      CLEAR     37  37  98 CALM      30.22S FOG
RANTOUL*       CLEAR     38  36  91 SE5       30.23S WCI  35
MATTOON        CLEAR     39  37  92 SE6       30.22S WCI  35
PARIS*         CLEAR     38  38 100 SE3       30.25S FOG
$$

ILZ079-100>102-231100-
SOUTHWEST ILLINOIS

CITY           SKY/WX    TMP DP  RH WIND       PRES   REMARKS
ALTON          CLEAR     36  35  95 CALM      30.21S
BELLEVILLE     CLEAR     37  37  99 CALM      30.21S FOG
CAHOKIA*       CLEAR     38  37  97 CALM      30.21S
SPARTA*        FOG       38  37  97 CALM      30.22S VSB 3/4
$$

ILZ064>066-069>071-074>076-080>082-084>086-088>090-092>094-231100-
SOUTH-CENTRAL ILLINOIS

CITY           SKY/WX    TMP DP  RH WIND       PRES   REMARKS
CARBONDALE     FOG      N/A N/A N/A CALM      30.22S VSB 1/4
CAIRO*         FOG       37  34  91 CALM      30.21S VSB 3/4
EFFINGHAM*     CLEAR     36  33  90 CALM      30.23S
MARION         CLEAR     41  39  93 CALM      30.22S
MT. VERNON     CLEAR     36  30  80 CALM      30.23R
CENTRALIA*     CLEAR     35  33  93 CALM      30.22S FOG
SALEM*         CLEAR     43  41  93 CALM      30.23R
METROPOLIS*    CLEAR     37  37 100 CALM      30.22R FOG
$$

ILZ067-068-072-073-078-083-087-091-231100-
SOUTHEAST ILLINOIS

CITY           SKY/WX    TMP DP  RH WIND       PRES   REMARKS
LAWRENCEVILLE  CLEAR     38  37  97 NE5       30.25S FOG     WCI  34
FLORA*         CLEAR     37  35  96 CALM      30.24R
FAIRFIELD*     CLEAR     39  39  99 CALM      30.22S
HARRISBURG*    FOG       34  34 100 CALM      30.24S VSB 1/2
ROBINSON*      CLEAR     35  35 100 CALM      30.26S FOG
CARMI*         FOG       35  35 100 CALM      30.23S VSB 1/4
$$

ABBREVIATIONS USED IN REMARKS
   TC - TEMPERATURE IN CELSIUS
  WCI - WIND CHILL INDEX
   HX - HEAT INDEX
  VSB - VISIBILITY
$$




USA.gov is the U.S. government's official web portal to all federal, state and local government web resources and services.